Showing default

AAC-IO1, 68498

Orbit data source: Space-Track

AAC-IO1, 68498 is a UK payload satellite in SSO that was launched on Mon, 30 Mar 2026 UTC via an FALCON 9 launch vehicle from the Air Force Western Test Range (AFWTR). Payload-class satellites include a variety of spacecraft equipped with specific instruments for various scientific and technological missions. These include communications satellites like Starlink; space stations such as the ISS; scientific satellites like the Hubble; Earth observation satellites from companies like Planet Labs, Umbra, and HawkEye 360; GPS; miniature CubeSats for education and research; and military/defense satellites.

Loading next visibility...
Identifier
68498, 2026-067CL
Orbit
SSO
Country
Flag of UKUK
Related business
None
Manufacturer
Unknown
Mission
Operational spacecraft
Bus & Motor
Unknown
Mass
Unknown
Launch date (UTC)
2026-03-30 (1 month ago)
Launch vehicle
FALCON 9
Launch site
Air Force Western Test Range (AFWTR)
Object type
Payload
Rocket body
Debris
Shape & HBR
Unknown shape, 1.1 m
Radar Cross Section
RCS unknown

Expand to show TLE details & history
Last TLE update: 10 hours ago

TLE from 10 hours ago
0 AAC-IO1
1 68498U 26067CL  26127.14354291  .00002574  00000-0  26372-3 0  9994
2 68498  97.7524  85.9911 0002442 160.9493 199.1818 14.91336560  5604
Epoch: 2026-05-07T03:26Z
TLE epoch observation values (Epoch: 2026-05-07T03:26:42.107Z)
Latitude
0.00005°
Longitude
169.32174°
Altitude
598.417 km
Speed
7.56 km/s
True Right ascension
05h 43m 57s
True Declination
0° 00' 00"
Sunlit
Object was in daylight at epoch
Visualization orbit readout
Latitude
Unknown
Longitude
Unknown
Altitude
Unknown
Speed
Unknown
Apparent Right ascension
Unknown
Apparent Declination
Unknown
Sunlit
N/A
Visualization observer readout
Local Sidereal Time
21:02:20
Azimuth
Unknown
Elevation
Unknown
Doppler factor
Unknown
Orbital elements
Apogee altitude
592.488 km
Perigee altitude
589.084 km
Semi-major axis
6,968.923 km
Eccentricity
0.00024
Inclination
97.7524°
RAAN
85.9911°
Arg. of periapsis
160.9493°
True anomaly
199.17261°
Mean anomaly
199.1818°
Eccentric anomaly
199.1772°
Mean motion
3.73074 °/min
Orbital period
96.5 mins
BSTAR
0.00026372
Loading maneuver chart data...
Computing Atmospheric mass density...
Loading historical data...
Loading historical data...
Loading historical data...
Loading historical data...
Loading historical data...
Loading historical data...
Loading historical data...

Documentation

Showing up to 5 results
|